SRA966 YSCB-YSSY

Flight info

Callsign SRA966
Flight time N/A
Altitude 21000
Route YSCB/35 N0421F210 CULIN2 CULIN Y59 RIVET RIVET4 YSSY/34L
Aircraft B77W/H-V/N

Departure

Time 2026-05-04 10:00
Airport Canberra Airport (YSCB)

Arrival

Time N/A
Airport Sydney Kingsford Smith International Airport (YSSY)
Time Latitude Longitude Altitude Speed Heading
2026-05-04 09:35 -35.30966 149.19139 1884 ft 0 kts 270°
2026-05-04 09:49 -35.30966 149.19144 1884 ft 2 kts 270°
2026-05-04 09:49 -35.30966 149.19167 1876 ft 3 kts 270°
2026-05-04 09:51 -35.30966 149.19250 1874 ft 0 kts 270°
2026-05-04 09:51 -35.30968 149.19245 1874 ft 4 kts 249°
2026-05-04 09:51 -35.30982 149.19239 1874 ft 0 kts 183°
2026-05-04 09:53 -35.30996 149.19239 1876 ft 5 kts 183°
2026-05-04 09:53 -35.31055 149.19238 1879 ft 12 kts 180°
2026-05-04 09:54 -35.31168 149.19237 1880 ft 20 kts 180°
2026-05-04 09:54 -35.31309 149.19239 1879 ft 20 kts 179°
2026-05-04 09:54 -35.31448 149.19240 1878 ft 20 kts 180°
2026-05-04 09:54 -35.31588 149.19244 1880 ft 20 kts 178°
2026-05-04 09:55 -35.31727 149.19243 1879 ft 20 kts 182°
2026-05-04 09:55 -35.31868 149.19241 1883 ft 20 kts 179°
2026-05-04 09:55 -35.31972 149.19275 1880 ft 0 kts 140°
2026-05-04 09:56 -35.31975 149.19278 1880 ft 4 kts 139°
2026-05-04 09:57 -35.32006 149.19391 1883 ft 17 kts 92°
2026-05-04 09:57 -35.31961 149.19447 1877 ft 8 kts
2026-05-04 09:57 -35.31957 149.19447 1879 ft 0 kts
2026-05-04 10:00 -35.31082 149.19443 1882 ft 167 kts 358°
2026-05-04 10:00 -35.29746 149.19436 2601 ft 204 kts 358°
2026-05-04 10:02 -35.17578 149.20783 6002 ft 261 kts 359°
2026-05-04 10:04 -35.04737 149.24305 12222 ft 327 kts
2026-05-04 10:04 -35.02450 149.24430 13473 ft 332 kts 354°
2026-05-04 10:04 -35.00119 149.24344 14759 ft 337 kts 353°
2026-05-04 10:04 -34.97759 149.24208 16004 ft 341 kts 353°
2026-05-04 10:05 -34.95406 149.23844 16825 ft 340 kts 343°
2026-05-04 10:05 -34.93164 149.22913 17091 ft 343 kts 333°
2026-05-04 10:05 -34.91110 149.21464 17089 ft 342 kts 325°
2026-05-04 10:05 -34.89167 149.19792 17091 ft 341 kts 323°
2026-05-04 10:06 -34.87257 149.18063 17090 ft 341 kts 322°
2026-05-04 10:06 -34.85363 149.16327 17089 ft 341 kts 322°
2026-05-04 10:06 -34.83468 149.14583 17096 ft 341 kts 322°
2026-05-04 10:08 -34.72160 149.04109 17094 ft 341 kts 322°
2026-05-04 10:08 -34.70277 149.02358 17109 ft 341 kts 322°
2026-05-04 10:08 -34.68388 149.00601 17102 ft 341 kts 322°
2026-05-04 10:08 -34.66505 148.98849 17092 ft 342 kts 322°
2026-05-04 10:09 -34.64617 148.97091 17097 ft 342 kts 322°
2026-05-04 10:09 -34.62732 148.95335 17106 ft 342 kts 322°
2026-05-04 10:09 -34.60837 148.93570 17106 ft 342 kts 322°
2026-05-04 10:09 -34.58946 148.91810 17097 ft 343 kts 322°
2026-05-04 10:10 -34.57055 148.90050 17102 ft 343 kts 322°
2026-05-04 10:10 -34.55165 148.88292 17112 ft 343 kts 322°
2026-05-04 10:10 -34.53271 148.86529 17110 ft 343 kts 322°
2026-05-04 10:10 -34.51327 148.84886 17095 ft 338 kts 332°
2026-05-04 10:11 -34.49068 148.84021 17110 ft 346 kts 348°
2026-05-04 10:11 -34.46633 148.84023 17116 ft 357 kts
2026-05-04 10:11 -34.44233 148.84965 17110 ft 370 kts 21°
2026-05-04 10:11 -34.42108 148.86803 17106 ft 385 kts 38°
2026-05-04 10:12 -34.40528 148.89473 17108 ft 400 kts 58°
2026-05-04 10:12 -34.39673 148.92724 17112 ft 412 kts 75°
2026-05-04 10:12 -34.39572 148.96180 17111 ft 420 kts 89°
2026-05-04 10:12 -34.39865 148.99705 17110 ft 422 kts 93°
2026-05-04 10:13 -34.40265 149.03217 17105 ft 422 kts 94°
2026-05-04 10:13 -34.40670 149.06741 17098 ft 420 kts 93°
2026-05-04 10:13 -34.41038 149.10250 17111 ft 419 kts 92°
2026-05-04 10:13 -34.41373 149.13756 17109 ft 419 kts 92°
2026-05-04 10:14 -34.41686 149.17263 17107 ft 418 kts 91°
2026-05-04 10:14 -34.41989 149.20765 17118 ft 419 kts 91°
2026-05-04 10:16 -34.39676 149.44244 17099 ft 400 kts 62°
2026-05-04 10:16 -34.38637 149.47365 17107 ft 399 kts 62°
2026-05-04 10:16 -34.37589 149.50529 17102 ft 400 kts 62°
2026-05-04 10:16 -34.36575 149.53607 17096 ft 400 kts 62°
2026-05-04 10:17 -34.35547 149.56745 17095 ft 400 kts 62°
2026-05-04 10:17 -34.34524 149.59877 17093 ft 400 kts 63°
2026-05-04 10:19 -34.27371 149.81774 17080 ft 398 kts 63°
2026-05-04 10:19 -34.26376 149.84809 17073 ft 398 kts 63°